Regional Weather Roundup
Issued by NWS Charleston, SC

Current Version | Previous Version | Graphics & Text | Print | Product List | Glossary On
Versions: 1 2 3 4 5 6 7 8 9 10 11 12 13 14 15 16 17 18 19 20 21 22 23 24 25 26 27 28 29 30 31 32 33 34 35 36 37 38 39 40 41 42 43 44 45 46 47 48 49 50
000 ASUS42 KCHS 300726 RWRCHS REGIONAL WEATHER ROUNDUP NATIONAL WEATHER SERVICE CHARLESTON SC 300 AM EDT THU JUL 30 2015 NOTE: "FAIR" INDICATES FEW OR NO CLOUDS BELOW 12,000 FEET WITH NO SIGNIFICANT WEATHER AND/OR OBSTRUCTIONS TO VISIBILITY. NOT ALL STATIONS ARE QUALITY CONTROLLED BY THE NATIONAL WEATHER SERVICE. USE DATA WITH CAUTION...ESPECIALLY DEWPOINT OBSERVATIONS. SCZ027-030-031-034>040-042>050-300800- ...SOUTHEAST SOUTH CAROLINA... CITY SKY/WX TMP DP RH WIND PRES REMARKS N CHARLESTON CLEAR 76 74 93 NW3 29.94F WATERFRONT PRK N/A 81 78 91 VRB2 29.92F MOUNT PLEASANT LGT RAIN 75 75 100 CALM 29.94F JOHNS ISLAND FAIR 77 75 94 CALM 29.94F PINOPOLIS NOT AVBL MONCKS CORNER FAIR 75 72 88 CALM 29.95F SUMMERVILLE FAIR 73 73 100 CALM 29.96F BEAUFORT MCAS MOCLDY 80 77 90 CALM 29.95F BEAUFORT ARPT FAIR 79 79 100 CALM 29.94F HILTON HEAD IS PTCLDY 79 79 100 W3 29.96S WALTERBORO MOSUNNY 77 73 88 CALM 29.96F ALLENDALE FAIR 77 75 94 CALM 29.95F ...SOUTHERN MIDLANDS AND PEE DEE... CITY SKY/WX TMP DP RH WIND PRES REMARKS GEORGETOWN NOT AVBL KINGSTREE NOT AVBL ORANGEBURG CLEAR 78 74 87 CALM 29.97F BARNWELL FAIR 79 75 89 CALM 29.97F AIKEN FAIR 73 70 88 SW3 30.01F MANNING FAIR 72 66 83 CALM 29.96F COLUMBIA MOCLDY 81 73 76 CALM 29.96F SUMTER CLEAR 78 71 81 SW3 29.95F FLORENCE CLEAR 76 70 82 CALM 29.96F MYRTLE BEACH CLEAR 77 72 83 CALM 29.97S N MYRTLE BEACH CLEAR 74 72 93 CALM 29.95F $$ GAZ063-065-086>088-099>101-113>116-118-119-134>141-150-300800- ...SOUTHEAST GEORGIA... CITY SKY/WX TMP DP RH WIND PRES REMARKS SAVANNAH ARPT CLEAR 77 74 90 NW3 29.96F HUNTER AAF CLEAR 77 77 100 W3 29.93F FORT STEWART CLEAR 76 73 88 NE1 29.93F STATESBORO CLEAR 75 72 88 CALM 29.96F SYLVANIA MOSUNNY 78 76 94 CALM 29.97F CLAXTON FAIR 73 72 94 CALM 29.95F ...CSRA...CENTRAL AND FAR SOUTHEAST GEORGIA... CITY SKY/WX TMP DP RH WIND PRES REMARKS THOMSON CLEAR 79 78 96 CALM 30.01F AUGUSTA-BUSH LGT RAIN 78 76 93 SW6 29.96F AUGUSTA-DANIEL CLOUDY 78 75 90 S8 29.99F SWAINSBORO CLOUDY N/A N/A N/A CALM 29.97F VIDALIA HVY RAIN 77 73 88 CALM 29.96F EASTMAN CLOUDY 77 77 100 CALM 29.98F HAZLEHURST FAIR 78 78 100 CALM 29.94F ALMA CLOUDY 75 74 96 CALM 29.93F FOG WAYCROSS MOCLDY 78 78 100 CALM 29.94F JESUP FAIR 79 75 89 NW5 29.94F BAXLEY FAIR 77 73 88 CALM 29.94F BRUNSWICK CLEAR 75 73 94 CALM 29.94F SAINT SIMONS CLEAR 78 75 90 N3 29.93F $$ SCZ027-028-034-036>038-045-046-048>050-GAZ119-141-300800- ...LAKE AND SUPPLEMENTAL COASTAL OBSERVATIONS... STATION/POSITION TIME TEMP WIND PRES WAVE SWELL AIR SEA DIR/SP/G HT/PER HT/PER/DIR (UTC) (F) (DEG/KT/KT) (MB) (FT/S) (FT/S/D) UPR LAKE MARION NOT AVBL WINYAH BAY 0600 77 320/ 2 1014.0 LAKE MURRAY 0600 82 210/ 15/ 19 1014.2F ACE BASIN NERRS NOT AVBL FORT PULASKI 0700 81 86 N/A SAPELO ISLAND 0700 77 30/ 3 1014.0F $$ ANZ835-935-AMZ111-154-330-350-352-354-370-450-454-472-300800- ...C-MAN AND BUOY OBSERVATIONS... STATION/POSITION TIME TEMP WIND PRES WAVE SWELL AIR SEA DIR/SP/G HT/PER HT/PER/DIR (UTC) (F) (DEG/KT/KT) (MB) (FT/S) (FT/S/D) BUOY 41004 0650 83 84 20/ 6/ 8 1013.1F 3/ 5 3/ 5 BUOY 41008 0650 82 83 310/ 6/ 10 1014.0F 2/ 7 2/120/ 7 FOLLY BEACH CMAN 0700 79 320/ 3/ 4 1014.0F CAPERS NEARSHORE 0608 82 40/ 4/ 6 1014.6 FRIPP NEARSHORE 0600 82 90/ 2/ 4 1014.3 STATION/POSITION TIME TEMP WIND PRES WAVE SWELL AIR SEA DIR/SP/G HT/PER HT/PER/DIR (UTC) (F) (DEG/KT/KT) (MB) (FT/S) (FT/S/D) 5E ST. MARYS GA 0621 83 N/A 2/10 FRYING PAN BUOY 0650 82 84 30/ 10/ 10 1013.7F 3/ 6 3/120/ 6 BUOY 41025 0650 83 85 170/ 14/ 16 1014.0F 3/ 7 2/130/ 7 CAPE LOOKOUT NC 0700 81 50/ 10/ 10 1013.1F BUOY 41002 0650 81 81 190/ 19/ 23 1014.4F 8/ 8 2/350/14 BUOY 41010 0620 84 84 250/ 14/ 17 1013.8R ST AUGUSTINE FL 0700 75 81 290/ 3/ 4 1014.5F $$

USA.gov is the U.S. government's official web portal to all federal, state and local government web resources and services.